Location: Dana
(41.8364°N, 106.7042°W)
Time: 10:46:58
(UTC+00:00)

Tiros 1 despin weight - Visible Passes

Search period start: 15 May 2026 00:00
Search period end: 25 May 2026 00:00
Orbit: 555 x 591 km, 48.2° (Epoch: 14 May)

Date Brightness Start Highest point End Pass type
(mag) Time Alt. Az. Time Alt. Az. Time Alt. Az.
15 May ? 10:24:25 10° SSE 10:26:02 12° SE 10:27:38 10° ESE visible
16 May ? 10:24:38 10° S 10:27:37 19° SE 10:30:36 10° E visible
17 May ? 10:26:22 14° SSW 10:29:15 28° SE 10:32:53 10° E visible
18 May ? 10:28:02 17° SSW 10:30:55 42° SE 10:34:56 10° ENE visible
19 May ? 08:53:31 12° ESE 08:53:31 12° ESE 08:54:23 10° ESE visible
19 May ? 10:29:37 18° SW 10:32:38 63° SSE 10:36:50 10° ENE visible
20 May ? 08:55:03 18° ESE 08:55:03 18° ESE 08:57:19 10° E visible
20 May ? 10:31:08 17° WSW 10:34:24 89° SSE 10:38:40 10° ENE visible
21 May ? 08:56:31 27° SE 08:56:31 27° SE 08:59:35 10° E visible
21 May ? 10:32:36 14° WSW 10:36:13 68° NNW 10:40:27 10° ENE visible
22 May ? 08:57:55 41° SE 08:57:55 41° SE 09:01:37 10° ENE visible
22 May ? 10:34:01 11° W 10:38:05 52° NNW 10:42:15 10° ENE visible
23 May ? 08:59:17 63° SE 08:59:17 63° SE 09:03:30 10° ENE visible
23 May ? 10:35:52 10° W 10:39:58 43° NNW 10:44:02 10° ENE visible
24 May ? 09:00:35 71° WSW 09:01:01 89° SSE 09:05:18 10° ENE visible
24 May ? 10:37:52 10° WNW 10:41:53 37° N 10:45:51 10° ENE visible
